STARLINK-31955, 59939

Orbit data source: Space-Track

STARLINK-31955, 59939 is a payload satellite owned by SpaceX/Seattle (US) in LEO that was launched on Sat, 01 Jun 2024 UTC via an FALCON 9 launch vehicle from the Air Force Eastern Test Range (AFETR). Payload-class satellites include a variety of spacecraft equipped with specific instruments for various scientific and technological missions. These include communications satellites like Starlink; space stations such as the ISS; scientific satellites like the Hubble; Earth observation satellites from companies like Planet Labs, Umbra, and HawkEye 360; GPS; miniature CubeSats for education and research; and military/defense satellites.

Loading next visibility...
Identifier
59939, 2024-106T
Orbit
LEO
Country
Flag of USUS
Related business
Manufacturer
SpaceX/Seattle
Mission
Operational Commercial Communications
Bus & Motor
STARLINK V2M, Unknown motor
Mass
730 kg wet, ~700 kg dry
Launch date (UTC)
2024-06-01 (2 years ago)
Launch vehicle
FALCON 9
Launch site
Air Force Eastern Test Range (AFETR)
Object type
Payload
Rocket body
Debris
Shape & HBR
Box + 2 Pan, 17.7 m
Radar Cross Section
33.884 m², Large (>1 m²)

Expand to show TLE details & history
Last TLE update: 19 hours ago

TLE from 19 hours ago
0 STARLINK-31955
1 59939U 24106T   26033.43763856  .00000679  00000-0  34188-4 0  9994
2 59939  43.0022 171.4211 0001382 269.3707  90.6987 15.27580327 95174
Epoch: 2026-02-02T10:30Z
TLE epoch observation values (Epoch: 2026-02-02T10:30:11.971Z)
Latitude
0.00003°
Longitude
-118.76168°
Altitude
482.835 km
Speed
7.626 km/s
True Right ascension
11h 25m 41s
True Declination
0° 00' 00"
Sunlit
Object was in full shadow at epoch
Visualization orbit readout
Latitude
Unknown
Longitude
Unknown
Altitude
Unknown
Speed
Unknown
Apparent Right ascension
Unknown
Apparent Declination
Unknown
Sunlit
N/A
Visualization observer readout
Local Sidereal Time
07:47:27
Azimuth
Unknown
Elevation
Unknown
Doppler factor
Unknown
Orbital elements
Apogee altitude
485.941 km
Perigee altitude
484.044 km
Semi-major axis
6,863.13 km
Eccentricity
0.00014
Inclination
43.0022°
RAAN
171.4211°
Arg. of periapsis
269.3707°
True anomaly
90.71454°
Mean anomaly
90.6987°
Eccentric anomaly
90.70662°
Mean motion
3.81733 °/min
Orbital period
94.31 mins
BSTAR
0.000034188
Loading maneuver chart data...
Computing Atmospheric mass density...
Loading historical data...
Loading historical data...
Loading historical data...
Loading historical data...
Loading historical data...
Loading historical data...
Loading historical data...

Documentation

Showing up to 5 results
|